EW5523 Weather Reports


time (UTC)temp
C
wind
direction
speed
KPH
gust
KPH
rain 1hr
cm
rain 24hr
cm
rain mn
cm
humidity
%
barometer
mb
20260507093003 20 56 1.6 19.3 0.00 0.00 0.00 41 1011.6
20260507091505 21 42 0.0 14.5 0.00 0.00 0.00 43 1011.5
20260507090113 21 314 1.6 9.7 0.00 0.00 0.00 45 1011.4
20260507084600 20 350 0.0 9.7 0.00 0.00 0.00 45 1011.5
20260507083102 20 28 1.6 17.7 0.00 0.00 0.00 47 1011.4
20260507081559 20 312 1.6 11.3 0.00 0.00 0.00 48 1011.5
20260507080054 20 66 1.6 11.3 0.00 0.00 0.00 49 1011.5
20260507074553 20 40 1.6 14.5 0.00 0.00 0.00 53 1011.5
20260507073100 20 341 0.0 14.5 0.00 0.00 0.00 53 1011.5
20260507071546 19 50 3.2 17.7 0.00 0.00 0.00 54 1011.4
20260507070119 18 49 6.4 17.7 0.00 0.00 0.00 56 1011.3
20260507064547 18 13 6.4 19.3 0.00 0.00 0.00 58 1011.2
20260507063040 18 47 6.4 17.7 0.00 0.00 0.00 60 1011.3
20260507061538 18 33 4.8 19.3 0.00 0.00 0.00 61 1011.1
20260507060042 18 48 1.6 16.1 0.00 0.00 0.00 63 1011.1
20260507054536 17 11 1.6 12.9 0.00 0.00 0.00 64 1011.0
20260507053039 17 37 1.6 17.7 0.00 0.00 0.00 65 1011.0
20260507051534 17 45 4.8 17.7 0.00 0.00 0.00 68 1010.9
20260507050034 17 23 0.0 19.3 0.00 0.00 0.00 71 1010.8
20260507044543 16 354 1.6 16.1 0.00 0.00 0.00 71 1010.7
20260507043037 16 354 0.0 16.1 0.00 0.00 0.00 72 1010.5
20260507041528 16 27 6.4 20.9 0.00 0.00 0.00 72 1010.4
20260507040027 16 27 3.2 17.7 0.00 0.00 0.00 73 1010.2
20260507034527 16 354 3.2 16.1 0.00 0.00 0.00 74 1010.1
20260507033026 16 29 1.6 14.5 0.00 0.00 0.00 76 1009.9
20260507031523 15 339 1.6 14.5 0.00 0.00 0.00 77 1009.7
20260507030022 15 330 1.6 16.1 0.00 0.00 0.00 77 1009.4
20260507024521 15 335 0.0 12.9 0.00 0.00 0.00 77 1009.3
20260507023019 15 35 0.0 11.3 0.00 0.00 0.00 77 1009.2
20260507021516 15 299 0.0 4.8 0.00 0.00 0.00 77 1008.9
20260507020015 14 359 0.0 3.2 0.00 0.00 0.00 78 1008.7
20260507014514 14 318 0.0 3.2 0.00 0.00 0.00 78 1008.5
20260507013012 14 341 0.0 1.6 0.00 0.00 0.00 78 1008.3
20260507011510 13 334 0.0 0.0 0.00 0.00 0.00 78 1008.0
20260507010009 14 328 0.0 0.0 0.00 0.00 0.00 76 1007.9
20260507004506 14 338 0.0 0.0 0.00 0.00 0.00 76 1007.7
20260507003005 14 347 0.0 0.0 0.00 0.00 0.00 75 1007.6
20260507001508 14 347 0.0 0.0 0.00 0.00 0.00 75 1007.4
20260507000002 14 347 0.0 0.0 0.00 0.00 0.00 73 1007.3
20260506234600 14 349 0.0 0.0 0.00 0.00 0.00 72 1007.2
20260506233057 15 349 0.0 0.0 0.00 0.00 0.00 72 1007.0
20260506231554 15 305 0.0 0.0 0.00 0.00 0.00 72 1006.8
20260506224550 15 302 0.0 0.0 0.00 0.00 0.00 70 1006.4
20260506223049 15 302 0.0 0.0 0.00 0.00 0.00 71 1006.3
20260506221548 15 302 0.0 0.0 0.00 0.00 0.00 69 1006.1
20260506220049 15 302 0.0 0.0 0.00 0.00 0.00 70 1006.2
20260506214545 15 302 0.0 0.0 0.00 0.00 0.00 68 1005.9
20260506213042 15 302 0.0 0.0 0.00 0.00 0.00 67 1005.8
20260506211541 16 330 0.0 0.0 0.00 0.00 0.00 66 1006.0
20260506210036 16 330 0.0 0.0 0.00 0.00 0.00 64 1006.0
20260506204534 17 330 0.0 1.6 0.00 0.00 0.00 62 1005.9
20260506203031 17 354 0.0 0.0 0.00 0.00 0.00 60 1005.7
20260506201540 18 359 0.0 3.2 0.00 0.00 0.00 58 1005.7
20260506200028 18 22 0.0 1.6 0.00 0.00 0.00 57 1005.8
20260506194527 18 10 0.0 19.3 0.00 0.00 0.00 55 1005.9
20260506193026 18 243 0.0 0.0 0.00 0.00 0.00 52 1005.4
20260506191524 19 243 0.0 0.0 0.00 0.00 0.00 51 1005.4
20260506190023 19 243 0.0 0.0 0.00 0.00 0.00 50 1005.3
20260506184524 20 308 0.0 0.0 0.00 0.00 0.00 48 1005.5
20260506183023 21 318 0.0 1.6 0.00 0.00 0.00 46 1005.4
20260506181522 20 301 0.0 4.8 0.00 0.00 0.00 48 1005.5
20260506180021 21 210 0.0 0.0 0.00 0.00 0.00 48 1005.5
20260506174522 21 198 0.0 0.0 0.00 0.00 0.00 46 1005.3
20260506173020 21 198 0.0 0.0 0.00 0.00 0.00 44 1005.4
20260506171520 22 198 0.0 0.0 0.00 0.00 0.00 43 1005.4
20260506170020 22 198 0.0 0.0 0.00 0.00 0.00 42 1005.3
20260506164519 22 198 0.0 0.0 0.00 0.00 0.00 41 1005.2
20260506163036 22 198 0.0 0.0 0.00 0.00 0.00 40 1005.1
20260506161519 23 198 0.0 0.0 0.00 0.00 0.00 39 1005.1
20260506160018 24 198 0.0 0.0 0.00 0.00 0.00 37 1005.1
20260506154524 25 194 0.0 0.0 0.00 0.00 0.00 36 1004.9
20260506153017 25 194 0.0 3.2 0.00 0.00 0.00 36 1004.9
20260506151516 25 200 0.0 0.0 0.00 0.00 0.00 35 1005.1
20260506150017 25 264 1.6 6.4 0.00 0.00 0.00 35 1005.1
20260506144517 25 278 0.0 12.9 0.00 0.00 0.00 36 1005.1
20260506143017 25 272 0.0 6.4 0.00 0.00 0.00 36 1005.1
20260506141515 25 322 1.6 14.5 0.00 0.00 0.00 35 1005.0
20260506140015 26 267 1.6 14.5 0.00 0.00 0.00 35 1004.8
20260506134515 26 247 0.0 8.0 0.00 0.00 0.00 34 1005.0
20260506133015 26 281 0.0 9.7 0.00 0.00 0.00 34 1004.9
20260506131517 26 283 0.0 12.9 0.00 0.00 0.00 33 1004.9
20260506130015 27 289 1.6 14.5 0.00 0.00 0.00 31 1004.8
20260506124512 27 305 1.6 17.7 0.00 0.00 0.00 31 1004.9
20260506123011 27 285 4.8 22.5 0.00 0.00 0.00 31 1005.1
20260506121509 27 287 8.0 17.7 0.00 0.00 0.00 32 1005.1
20260506120008 27 277 4.8 19.3 0.00 0.00 0.00 30 1005.3
20260506114508 27 243 4.8 20.9 0.00 0.00 0.00 31 1005.4
20260506113008 27 345 6.4 22.5 0.00 0.00 0.00 31 1005.5
20260506111504 26 278 3.2 17.7 0.00 0.00 0.00 32 1005.5
20260506110005 26 232 4.8 22.5 0.00 0.00 0.00 32 1005.7
20260506104502 26 226 3.2 16.1 0.00 0.00 0.00 33 1005.9
20260506103002 26 299 1.6 16.1 0.00 0.00 0.00 33 1006.0
20260506101600 27 268 0.0 19.3 0.00 0.00 0.00 31 1006.0
20260506100058 27 287 1.6 14.5 0.00 0.00 0.00 33 1006.0
20260506094557 26 203 1.6 16.1 0.00 0.00 0.00 34 1006.1